Location: ????????
(56.0167°N, 38.0333°E)
Time: 10:44:56
(UTC+00:00)

CENTAUR R/B - Pass Details

Date: 19 May 2025
Orbit: 645 x 1537 km, 63.4° (Epoch: 13 June)

Event Time Altitude Azimuth Distance (km) Brightness Sun altitude
Rises 21:24:56 0° 310° (NW) 4,060 6.3 -14.0°
Reaches altitude 10° 21:27:31 10° 307° (NW) 3,210 5.7 -14.0°
Maximum altitude 21:35:22 63° 229° (SW) 1,548 3.3 -14.0°
Enters shadow 21:44:24 10° 152° (SSE) 3,668 5.0 -13.9°
